Regional Weather Roundup
Issued by NWS Cleveland, OH

Home | Current Version | Previous Version | Graphics & Text | Print | Product List | Glossary On
Versions: 1 2 3 4 5 6 7 8 9 10 11 12 13 14 15 16 17 18 19 20 21 22 23 24 25 26 27 28 29 30 31 32 33 34 35 36 37 38 39 40 41 42 43 44 45 46 47 48 49 50
000
ASUS41 KCLE 260010
RWRCLE
OHIO REGIONAL WEATHER ROUNDUP
NATIONAL WEATHER SERVICE WILMINGTON, OH
800 PM EDT THU AUG 25 2016

NOTE: "FAIR" INDICATES FEW OR NO CLOUDS BELOW 12,000 FEET WITH NO
SIGNIFICANT WEATHER AND/OR OBSTRUCTIONS TO VISIBILITY.

OHZ001>008-015>018-024>027-034-035-043-044-260100-
   NORTHWEST OHIO

CITY           SKY/WX    TMP DP  RH WIND       PRES   REMARKS
DEFIANCE       FAIR      81  69  67 W5        30.01S
FINDLAY        FAIR      82  67  60 W12       30.01R
TOLEDO EXPRESS FAIR      81  71  71 W10       29.99S
TOLEDO EXEC    FAIR      82  70  66 W14       30.00R
LIMA           FAIR      79  71  76 W10       30.03S
$$

OHZ009>014-019>023-028>033-038-089-260100-
   NORTHEAST OHIO

CITY           SKY/WX    TMP DP  RH WIND       PRES   REMARKS
CLE-HOPKINS    FAIR      84  68  58 W13       30.00R
CLE-LAKEFRONT  FAIR      81  72  74 W15       29.97R
CUY CO. ARPT   MOCLDY    84  72  65 W14       30.00R
LORAIN-ELYRIA  FAIR      82  68  62 W8        30.00R
ASHTABULA      MOCLDY    79  74  84 NW8       30.00R
AKRON-CANTON   FAIR      83  70  64 SW8       30.01R
WOOSTER        FAIR      82  72  71 W9        30.02R
MANSFIELD      MOCLDY    82  72  71 W5        30.03R
YOUNGSTOWN     TSTM      76  72  87 NW9       30.01R
$$

OHZ042-051>053-060>062-070>072-077>081-260100-
  SOUTHWEST OHIO

CITY           SKY/WX    TMP DP  RH WIND       PRES   REMARKS
CINC-COVINGTON FAIR      85  73  67 SW5       30.06S HX  91
CINC-LUNKEN    FAIR      84  73  69 SW7       30.04S HX  90
HAMILTON       FAIR      85  73  67 W5        30.05S HX  91
DAYTON         FAIR      82  71  69 W10       30.05F
WRIGHT-PAT AFB FAIR      85  73  67 SW7       30.03S HX  91
DAYTON GENERAL FAIR      85  70  60 SW7       30.05S
WILMINGTON     FAIR      83  74  74 SW7       30.05F
$$

OHZ036-037-039>041-045>050-054>059-063>069-073>076-082>088-260100-
  CENTRAL AND SOUTHEAST OHIO

CITY           SKY/WX    TMP DP  RH WIND       PRES   REMARKS
COLUMBUS       FAIR      85  72  65 SW10      30.02S HX  91
OSU AIRPORT    FAIR      85  73  67 SW10      30.03R HX  91
BOLTON FIELD   FAIR      82  75  79 SW6       30.04S
RICKENBACK AFB FAIR      83  75  75 SW5       30.02S HX  90
NEWARK         FAIR      83  74  74 SW8       30.02S
MARION         MOCLDY    83  71  67 NW8       30.03R
LANCASTER      FAIR      83  74  74 SW6       30.04S
ZANESVILLE     FAIR      85  73  67 SW5       30.03S HX  91
NEW PHILLY     FAIR      86  73  65 SW6       30.01S HX  93
$$




USA.gov is the U.S. government's official web portal to all federal, state and local government web resources and services.